This is the latest recevied weather packets stored in our database for station/object N6GPM. If no packets are shown the sender has not sent any weather packets the latest 10 day(s).
| Time | Temp. | Humidity | Pressure | Rain* | Wind** | Luminosity | Snow |
|---|---|---|---|---|---|---|---|
| 1787864292 | 36.67° C | 29% | 1016.8 hPa | 0 mm | - | 1006 W/m² | - |
| 1787863987 | 36.11° C | 28% | 1016.7 hPa | 0 mm | - | 995 W/m² | - |
| 1787863686 | 36.11° C | 26% | 1016.8 hPa | 0 mm | - | 742 W/m² | - |
| 1787863385 | 36.11° C | 27% | 1017 hPa | 0 mm | - | 979 W/m² | - |
| 1787863081 | 35.56° C | 27% | 1017.2 hPa | 0 mm | - | 753 W/m² | - |
| 1787862776 | 35.56° C | 29% | 1017.4 hPa | 0 mm | - | 872 W/m² | - |
| 1787862475 | 35° C | 30% | 1017.4 hPa | 0 mm | - | 1083 W/m² | - |
| 1787862170 | 35° C | 30% | 1017.4 hPa | 0 mm | - | 657 W/m² | - |
| 1787861866 | 35° C | 30% | 1017.4 hPa | 0 mm | - | 827 W/m² | - |
| 1787861565 | 35° C | 30% | 1017.4 hPa | 0 mm | - | 460 W/m² | - |
| 1787861259 | 35° C | 29% | 1017.5 hPa | 0 mm | - | 458 W/m² | - |
| 1787860959 | 35° C | 29% | 1017.6 hPa | 0 mm | - | 981 W/m² | - |
| 1787860653 | 35° C | 29% | 1017.4 hPa | 0 mm | - | 815 W/m² | - |
| 1787860348 | 35° C | 27% | 1017.6 hPa | 0 mm | - | 676 W/m² | - |
| 1787860043 | 35.56° C | 28% | 1017.5 hPa | 0 mm | - | 529 W/m² | - |
| 1787859738 | 36.11° C | 27% | 1017.6 hPa | 0 mm | - | 487 W/m² | - |
| 1787859433 | 36.11° C | 25% | 1017.4 hPa | 0 mm | - | 532 W/m² | - |
| 1787859128 | 36.67° C | 25% | 1017.4 hPa | 0 mm | - | 763 W/m² | - |
| 1787858824 | 37.22° C | 24% | 1017.6 hPa | 0 mm | - | 573 W/m² | - |
| 1787858520 | 37.22° C | 26% | 1017.7 hPa | 0 mm | - | 821 W/m² | - |
| 1787858219 | 37.22° C | 26% | 1017.4 hPa | 0 mm | - | 1078 W/m² | - |
| 1787857915 | 36.67° C | 27% | 1017.3 hPa | 0 mm | - | 1083 W/m² | - |
| 1787857611 | 36.11° C | 27% | 1017.7 hPa | 0 mm | - | 1122 W/m² | - |
| 1787857310 | 36.11° C | 28% | 1017.9 hPa | 0 mm | - | 1004 W/m² | - |
| 1787857009 | 35° C | 30% | 1017.9 hPa | 0 mm | - | 974 W/m² | - |
* Rain latest hour (hover to see other rain measurements)
** Current wind speed in m/s (hover to see current wind gust speed)